Regional Weather Roundup
Issued by NWS

Home | Current Version | Previous Version | Graphics & Text | Print | Product List | Glossary On
Versions: 1 2 3 4 5 6 7 8 9 10 11 12 13 14 15 16 17 18 19 20 21 22 23 24 25 26 27 28 29 30 31 32 33 34 35 36 37 38 39 40 41 42 43 44 45 46 47 48 49 50
000
ASUS43 KMPX 221710
RWRMN
WEATHER ROUNDUP FOR MINNESOTA
NATIONAL WEATHER SERVICE TWIN CITIES/CHANHASSEN MN
1100 AM CST MON DEC 22 2014


NOTE: "FAIR" INDICATES FEW OR NO CLOUDS BELOW 12,000 FEET WITH NO
SIGNIFICANT WEATHER AND/OR OBSTRUCTIONS TO VISIBILITY. N/A MEANS
CURRENT SKY AND/OR WEATHER CONDITIONS ARE NOT AVAILABLE.

MNZ060>063-068>070-221800-
   Twin Cities Metro

CITY           SKY/WX    TMP DP  RH WIND       PRES   REMARKS
TWIN CITIES    LGT RAIN  36  33  89 SE14      29.65F FOG
ST PAUL        LGT RAIN  36  34  92 SE10      29.67F FOG
CRYSTAL        LGT RAIN  37  34  89 SE10G20   29.63F FOG
LAKEVILLE      RAIN      36  34  93 SE10      29.63F
EDEN PRAIRIE   LGT RAIN  36  34  92 SE15      29.62F FOG
SOUTH ST PAUL  CLOUDY    37  35  94 SE9       29.65F FOG
LAKE ELMO      DRIZZLE   36  34  93 SE9       29.67F
$$
MNZ001>005-007-008-013>017-022>024-027-028-221800-
   Northwest Minnesota

CITY           SKY/WX    TMP DP  RH WIND       PRES   REMARKS
BEMIDJI        CLOUDY    34  34  99 E8        29.58S FOG     WCI  28
HALLOCK        MOSUNNY   36  34  93 E8        29.58S FOG
ROSEAU         CLOUDY    36  30  80 E8        29.60S HAZE
WARROAD        CLOUDY    34  30  86 E8        29.62S FOG     WCI  27
THIEF RVR FALL CLOUDY    36  34  93 E13       29.56F
CROOKSTON      CLOUDY    36  36 100 E10       29.55F
FOSSTON        CLOUDY    34  34 100 E6        29.56S WCI  29
DETROIT LAKES  LGT RAIN  36  36 100 SE12      29.54S
MOORHEAD       LGT RAIN  39  39 100 SE7       29.52S
PARK RAPIDS    CLOUDY    36  35  96 SE14      29.55F FOG
MAHNOMEN       LGT RAIN  36  35  96 SE8       29.54S
$$
MNZ006-009>011-018-025>026-221800-
   North Central Minnesota

CITY           SKY/WX    TMP DP  RH WIND       PRES   REMARKS
BAUDETTE       CLOUDY    34  33  96 E8        29.62S WCI  27
FLAG ISLAND    CLOUDY    34  32  93 E8        29.63S FOG     WCI  27
INTL FALLS     LGT RAIN  33  32  96 SE7       29.65F FOG     WCI  27
WASKISH        CLOUDY    36  36 100 E7        29.61F
BIG FORK       DRIZZLE   36  34  93 SE7       29.64F
LONGVILLE      RAIN      36  36 100 SE7       29.60F
GRAND RAPIDS   CLOUDY    34  34 100 SE6       29.63F WCI  29
CRANE LAKE     LGT RAIN  34  34 100 CALM      29.70F
ORR            FLURRIES  34  30  86 SE6       29.65S WCI  29
COOK           RAIN      34  34 100 SE3       29.67F
WALKER         CLOUDY    34  34  98 SE6       29.58F FOG     WCI  29
$$
MNZ012-019>021-037-221800-
   Northeast Minnesota

CITY           SKY/WX    TMP DP  RH WIND       PRES   REMARKS
DULUTH         LGT SNOW  33  32  96 SE12      29.68F VSB 1   WCI  24
ELY            CLOUDY    34  32  93 SE7       29.69F WCI  28
HIBBING        LGT SNOW  34  31  88 SE10      29.66F FOG     WCI  26
EVELETH        LGT SNOW  34  34 100 SE5       29.68F WCI  30
DULUTH HARBOR  MIX PCPN  36  34  93 CALM      29.73F
TWO HARBORS    CLOUDY    36  30  80 E5        29.71S VSB 1/2
SILVER BAY     LGT SNOW  34  34 100 CALM      29.71F VSB 1
GRAND MARAIS     N/A     37  35  92 S13       29.79F
G MARAIS ARPRT MIX PCPN  30  28  93 SE5       29.74F VSB<1/4 WCI  25
$$
MNZ029>031-032-039>041-046>048-054>057-064-221800-
   West Central Minnesota

CITY           SKY/WX    TMP DP  RH WIND       PRES   REMARKS
FERGUS FALLS   CLOUDY    37  37 100 SE12      29.54S
WHEATON        CLOUDY    36  36 100 SE15      29.50F FOG
MORRIS         DRIZZLE   37  36  93 SE14      29.50S
ALEXANDRIA     CLOUDY    36  35  96 SE13      29.53F FOG
ELBOW LAKE     DRIZZLE   37  37  99 SE12      29.51S
WADENA         CLOUDY    36  34  93 SE13      29.55S FOG
GLENWOOD       DRIZZLE   36  36 100 SE15      29.54S
APPLETON       DRIZZLE   39  37  93 SE13      29.49F
BENSON         DRIZZLE   39  37  93 S15G21    29.52S
ORTONVILLE     LGT RAIN  37  36  93 SE14G20   29.47F
MADISON        DRIZZLE   41  39  93 SE14      29.48S
WILLMAR        DRIZZLE   37  36  93 SE14      29.55F
$$
MNZ033>034-036-042>043-049>051-058-059-221800-
   Central Minnesota

CITY           SKY/WX    TMP DP  RH WIND       PRES   REMARKS
ST CLOUD       LGT RAIN  38  34  85 SE15      29.60F FOG
SAUK CENTRE    DRIZZLE   35  35  98 SE14G20   29.55F WCI  26
PAYNESVILLE    LGT RAIN  34  34 100 E14G21    29.57S WCI  24
AITKIN         CLOUDY    37  34  87 SE10G16   29.61F HAZE
PINE RIVER     CLOUDY    36  36 100 SE12      29.63F FOG
BRAINERD       CLOUDY    35  35 100 SE8       29.61S FOG     WCI  29
STAPLES        CLOUDY    36  36 100 SE7       29.57F FOG
LONG PRAIRIE   CLOUDY    34  34 100 SE10      29.56F FOG     WCI  26
LITTLE FALLS   MIX PCPN  36  34  93 SE13G22   29.59F
LITCHFIELD     LGT RAIN  37  37 100 SE15G21   29.58F
BUFFALO        DRIZZLE   36  33  92 E14       29.62F
MAPLE LAKE     RAIN      37  36  98 SE9       29.61F
$$
MNZ037-044-045-052-053-221800-
   East Central Minnesota

CITY           SKY/WX    TMP DP  RH WIND       PRES   REMARKS
PRINCETON      DRIZZLE   37  36  93 SE9       29.63F
MORA           CLOUDY    32  32 100 SE9       29.67S WCI  24
CAMBRIDGE      DRIZZLE   37  30  75 SE8       29.63F
RUSH CITY      CLOUDY    35  34  95 SE12      29.67F FOG     WCI  27
MOOSE LAKE     CLOUDY    34  34 100 SE3       29.66F FOG
HINCKLEY       CLOUDY    36  36 100 SE8       29.67F FOG
CLOQUET        CLOUDY    34  32  93 SE8       29.68F FOG     WCI  27
MCGREGOR       CLOUDY    36  34  93 SE9       29.65S
$$
MNZ071>073-080-081-089-090-097-098-221800-
   Southwest Minnesota

CITY           SKY/WX    TMP DP  RH WIND       PRES   REMARKS
MONTEVIDEO     DRIZZLE   37  37 100 S14       29.51F
GRANITE FALLS  LGT RAIN  38  37  97 E16       29.52F
CANBY          DRIZZLE   38  38  98 SE9       29.47F
MARSHALL       CLOUDY    39  36  87 SE15      29.48F
REDWOOD FALLS  LGT RAIN  39  37  92 SE16      29.53F FOG
OLIVIA         DRIZZLE   39  37  93 SE14G21   29.54S
PIPESTONE      DRIZZLE   37  37 100 S12       29.44F
WINDOM         LGT RAIN  37  37 100 SE16G22   29.51F
WORTHINGTON    CLOUDY    37 -11  12 SE16G23   29.49F
JACKSON        DRIZZLE   37  36  93 SE13      29.52F
TRACY          RAIN      40  38  95 S16       29.49F
SLAYTON        DRIZZLE   37  37 100 SE18      29.48S
$$
MNZ065>067-074>077-082>085-091>093-221800-
   South Central Minnesota

CITY           SKY/WX    TMP DP  RH WIND       PRES   REMARKS
MANKATO        CLOUDY    37  32  81 SE18      29.59F
NEW ULM        LGT SNOW  37  37 100 SE13G22   29.56F
FAIRMONT       CLOUDY    37  34  87 SE16      29.55F
GLENCOE        DRIZZLE   37  37  98 SE15G21   29.59F
FARIBAULT      DRIZZLE   36  34  93 SE16      29.63F
OWATONNA       RAIN      36  34  93 SE16G22   29.62F
WASECA         DRIZZLE   36  36 100 SE17      29.62F
ALBERT LEA     LGT RAIN  36  36 100 SE14      29.61F
$$
MNZ078>079-086>088-094>096-221800-
   Southeast Minnesota

CITY           SKY/WX    TMP DP  RH WIND       PRES   REMARKS
ROCHESTER      MIX PCPN  34  33  96 SE16      29.65F FOG     WCI  24
RED WING       DRIZZLE   36  36 100 SE12G18   29.67F
STANTON        DRIZZLE   38  34  87 SE14G20   29.63F
DODGE CENTER   LGT SNOW  34  34 100 SE16      29.63F WCI  23
WINONA         CLOUDY    37  34  87 SE10      29.71F
AUSTIN         MIX PCPN  34  34 100 SE10      29.63F WCI  26
PRESTON        CLOUDY    34  32  93 SE14      29.67F FOG     WCI  24
$$
ABBREVIATIONS USED IN REMARKS
   TC - TEMPERATURES IN CELSIUS
  WCI - WIND CHILL INDEX
   HX - HEAT INDEX
  VSB - VISIBILITY
$$



USA.gov is the U.S. government's official web portal to all federal, state and local government web resources and services.